Location: Easthampton
(42.2676°N, 72.6690°W)
Time: 21:40:00
(UTC+00:00)

Gurwin Techsat 1B - Visible Passes

Search period start: 31 March 2023 00:00
Search period end: 10 April 2023 00:00
Orbit: 811 x 813 km, 98.9° (Epoch: 30 March)

Date Brightness Start Highest point End Pass type
(mag) Time Alt. Az. Time Alt. Az. Time Alt. Az.
31 Mar 9.1 07:31:04 10° NNE 07:35:53 56° E 07:35:53 56° E visible
31 Mar 10.0 09:12:00 10° NNW 09:15:46 20° WNW 09:17:05 18° W visible
01 Apr 9.9 07:08:18 10° NNE 07:12:42 35° E 07:12:42 35° E visible
01 Apr 9.5 08:48:23 10° N 08:52:59 30° WNW 08:53:53 29° W visible
02 Apr 10.6 06:45:51 10° NE 06:49:31 22° E 06:49:31 22° E visible
02 Apr 8.9 08:25:01 10° N 08:30:06 47° WNW 08:30:42 45° W visible
03 Apr 11.1 06:24:04 10° ENE 06:26:19 14° E 06:26:19 14° E visible
03 Apr 8.4 08:01:50 10° N 08:07:10 76° WNW 08:07:31 72° WSW visible
03 Apr 10.6 09:44:43 10° NW 09:46:09 11° NW 09:47:35 10° WNW visible
04 Apr 8.7 07:38:49 10° NNE 07:44:08 68° ESE 07:44:20 68° ESE visible
04 Apr 10.2 09:20:05 10° NNW 09:23:28 17° WNW 09:25:32 14° W visible
05 Apr 9.5 07:16:00 10° NNE 07:21:02 42° E 07:21:08 42° ESE visible
05 Apr 9.7 08:56:20 10° N 09:00:43 27° WNW 09:02:20 23° W visible
06 Apr 10.3 06:53:26 10° NE 06:57:51 26° E 06:57:57 26° E visible
06 Apr 9.1 08:32:54 10° N 08:37:52 41° WNW 08:39:08 35° WSW visible
07 Apr 10.9 06:31:20 10° NE 06:34:35 16° E 06:34:45 16° E visible
07 Apr 8.6 08:09:39 10° N 08:14:57 65° WNW 08:15:57 53° WSW visible
08 Apr 8.6 07:46:35 10° NNE 07:51:56 79° ESE 07:52:45 64° S visible
08 Apr 10.4 09:28:12 10° NNW 09:31:10 15° WNW 09:33:57 10° W visible
09 Apr 9.2 07:23:41 10° NNE 07:28:52 49° E 07:29:33 46° SE visible
09 Apr 9.9 09:04:19 10° NNW 09:08:25 23° WNW 09:10:45 17° W visible
